GFSNW_850_thetae_000.txt.gz
Theta_e
300 300 300 299 299 302 303 304 307 316 314 317 315 313 314 316 315 317 317 320 321 322 323 323 325 325 324 325 325 322 319 318 323 323 325 324 326 326 324 325 327 324 325 330
300 300 299 298 299 303 303 304 308 312 316 316 316 316 319 317 316 315 317 319 321 322 323 325 327 328 329 326 325 324 322 319 324 323 324 325 327 326 326 322 322 326 329 331
299 299 299 298 298 301 304 307 310 317 316 316 317 315 318 320 322 320 321 321 321 322 323 325 326 327 328 329 326 327 325 318 322 325 324 325 327 327 327 325 325 325 327 331
301 299 299 298 298 300 307 309 313 312 311 312 308 312 318 322 323 324 324 321 326 327 324 326 330 333 333 331 328 331 322 321 324 323 326 328 328 328 327 327 325 328 326 329
302 302 299 298 298 299 313 313 313 314 310 309 312 312 319 317 319 323 323 328 328 327 328 332 333 331 331 331 328 326 319 323 324 326 327 327 328 329 330 330 328 330 328 331
302 301 301 298 298 299 305 307 310 313 310 309 311 313 315 315 315 324 327 327 327 329 327 326 327 330 328 329 329 327 322 323 324 325 327 329 330 331 329 330 332 329 327 327
302 302 302 299 298 299 303 306 307 311 310 309 312 311 314 315 316 318 326 327 326 328 328 328 331 330 328 330 330 327 325 322 321 325 325 329 327 330 333 334 334 333 330 330
301 302 302 302 301 299 299 301 307 310 308 310 311 313 313 312 315 318 321 321 323 326 326 324 327 329 328 331 329 330 330 331 333 325 324 326 332 332 333 333 335 334 334 333
301 301 301 302 301 302 298 301 308 309 308 308 310 310 311 310 311 317 320 320 325 326 320 325 328 331 332 334 330 329 329 329 334 334 330 330 330 333 333 331 335 332 333 332
300 301 301 301 302 302 299 301 307 309 311 310 309 309 309 309 309 314 317 313 321 328 322 322 324 325 326 334 333 332 331 333 333 333 334 330 331 334 333 333 332 334 332 332
301 301 301 301 302 303 300 304 307 307 309 309 308 309 311 311 310 311 312 317 320 326 328 326 322 323 324 329 332 334 338 338 335 333 332 333 332 334 338 333 333 333 333 333
300 300 301 301 301 303 300 301 307 308 307 308 308 309 309 308 310 311 309 311 317 320 321 324 325 329 328 328 336 333 338 336 340 338 337 332 330 330 331 331 332 332 333 333
300 301 302 302 302 302 301 302 305 307 308 307 310 313 312 310 311 311 310 314 313 316 316 316 324 330 328 334 332 334 333 335 336 334 333 334 330 329 330 331 330 330 330 330
300 301 300 300 302 301 300 301 303 307 308 307 311 311 312 312 310 310 309 309 312 314 316 315 319 325 324 328 330 333 333 332 336 335 334 330 328 327 326 326 328 329 328 327
300 300 302 301 302 300 300 300 302 308 307 308 309 310 312 313 310 309 311 313 313 315 314 312 314 321 321 319 325 329 329 332 334 334 332 329 327 324 323 323 322 322 323 324
300 302 301 301 302 299 303 307 308 308 308 308 308 313 312 311 311 310 312 312 313 314 313 312 317 317 320 321 322 321 329 331 330 330 329 326 321 320 321 321 322 322 322 322
301 302 301 301 301 300 304 308 309 309 308 306 310 311 314 313 312 313 313 312 313 314 313 313 314 316 317 319 320 319 325 327 327 326 319 319 319 321 321 322 322 322 322 322
301 302 301 301 299 300 302 307 307 305 304 307 309 312 312 313 312 313 314 314 313 313 313 314 312 315 313 317 317 320 321 321 321 320 321 320 320 321 320 320 321 321 320 320
301 301 301 301 302 305 308 308 308 305 306 308 311 312 313 312 312 314 315 315 314 315 310 310 312 312 319 314 319 320 320 319 319 319 319 319 318 318 319 319 319 319 318 318
301 300 303 304 306 308 307 306 307 307 309 307 308 311 310 311 314 311 315 314 314 314 313 317 320 320 322 321 321 320 319 319 318 318 318 318 318 318 318 318 318 318 317 317
300 303 304 306 307 306 307 309 310 310 310 310 309 309 308 314 312 314 315 313 313 314 316 315 321 323 321 321 321 321 321 321 321 320 320 320 320 319 319 318 318 318 319 319
303 303 306 306 306 308 308 305 309 310 310 310 309 309 314 313 313 314 315 314 314 315 314 318 325 323 321 321 321 320 321 321 321 321 320 320 320 320 320 320 320 320 321 321
302 304 305 307 308 300 307 309 309 309 310 311 311 310 312 312 313 314 313 315 314 313 317 325 323 320 320 319 321 321 320 320 321 320 320 320 321 321 321 321 320 320 322 321
303 304 304 304 305 308 307 310 312 312 312 313 313 314 313 314 311 313 315 314 314 317 322 323 319 320 320 319 321 320 319 320 320 321 320 321 322 320 319 319 321 321 320 321
305 306 305 308 309 309 311 312 311 311 311 312 312 313 313 311 312 312 313 315 319 321 322 320 321 319 318 321 320 317 318 318 318 318 318 318 318 317 318 318 320 320 320 320
306 307 307 308 309 310 310 311 311 310 310 311 312 312 312 314 313 314 315 318 320 319 317 319 319 318 318 317 317 317 317 317 317 317 317 318 318 317 317 318 319 319 319 320
306 307 308 307 308 310 310 311 311 311 312 310 311 311 312 311 311 315 316 317 316 317 318 318 318 318 317 317 316 316 317 316 315 315 316 315 315 315 316 317 319 319 319 319

GFSNW_850_thetae_003.txt.gz
Theta_e
302 299 299 299 298 298 300 303 301 313 313 314 309 308 310 314 313 316 315 317 317 317 319 319 320 320 321 324 323 319 316 317 321 320 321 323 322 323 323 325 325 321 323 326
303 302 299 299 298 298 300 304 305 306 314 312 313 313 317 318 319 317 315 314 317 320 320 319 319 321 323 326 323 322 316 316 318 320 322 323 324 323 321 319 320 326 328 328
303 303 301 299 298 297 300 304 306 313 313 311 311 311 312 317 321 321 322 318 320 321 323 322 322 324 326 328 322 326 321 314 321 323 322 323 325 326 323 323 324 323 325 328
301 302 303 302 298 297 303 307 309 310 309 310 307 308 312 317 319 318 321 321 321 326 326 327 327 327 330 332 330 330 320 320 317 322 322 324 325 326 325 325 324 328 326 327
302 302 302 302 300 297 305 310 310 311 311 309 307 309 312 314 315 316 321 321 327 327 326 329 329 327 328 333 328 326 316 320 321 322 321 323 324 325 327 327 323 326 324 326
302 302 302 302 301 301 302 304 305 309 311 308 309 310 311 314 314 315 316 326 327 329 328 327 327 326 325 329 330 327 319 321 319 324 323 325 326 326 327 329 329 327 327 325
300 301 301 302 302 301 302 302 304 308 311 309 310 311 311 313 312 313 316 318 325 328 327 326 327 327 323 325 329 327 324 319 319 323 325 328 326 329 329 333 334 333 332 326
301 300 301 301 301 302 302 301 303 308 311 309 311 311 310 310 310 314 318 320 319 320 321 324 326 329 329 329 331 329 325 320 326 324 324 327 332 334 333 332 333 332 332 331
301 300 301 301 301 302 302 302 302 304 309 308 309 309 308 308 306 308 316 318 323 322 318 324 328 333 330 332 332 327 326 325 328 326 326 330 331 331 333 329 334 331 331 331
301 299 300 301 301 301 302 302 303 304 308 308 309 307 307 309 308 306 312 310 315 327 322 324 324 326 327 333 333 331 333 331 333 331 333 331 331 331 331 334 331 332 330 330
299 301 302 301 300 302 302 302 303 304 307 307 307 307 308 310 309 308 310 313 318 320 327 328 327 324 327 332 332 332 333 336 339 335 334 336 330 332 334 330 330 330 331 331
299 300 299 300 301 302 303 302 303 303 304 306 307 307 307 306 309 308 309 309 315 318 320 321 323 329 325 326 336 332 336 335 337 334 331 328 329 328 329 329 329 329 332 333
301 301 300 302 302 301 303 302 301 304 306 306 306 307 311 311 307 307 309 310 311 315 314 316 322 329 325 330 331 333 334 332 332 331 328 329 327 326 326 328 327 327 327 327
301 300 300 300 300 301 303 300 300 304 305 306 307 310 311 311 310 310 310 310 309 311 314 314 319 325 322 325 327 329 331 333 332 330 330 326 322 322 321 323 327 328 327 327
301 300 300 302 301 303 301 300 300 303 304 306 307 306 310 311 311 310 310 310 311 313 312 314 317 318 319 317 324 326 322 333 332 330 329 323 321 319 320 321 321 322 322 320
300 300 301 301 301 302 300 306 304 305 306 306 306 308 310 311 310 310 310 312 312 313 311 312 313 316 319 321 323 322 322 330 327 328 319 319 321 321 321 321 321 321 321 321
301 300 302 301 301 301 301 306 307 306 307 306 309 308 313 312 311 312 312 311 313 312 311 311 310 313 317 317 321 317 320 325 324 322 320 319 320 318 319 320 320 320 320 319
301 301 301 301 301 299 300 306 306 306 305 305 307 308 310 313 311 311 314 312 312 312 312 312 311 313 315 318 315 318 317 318 319 318 319 318 318 319 319 320 320 320 319 319
300 301 301 300 301 303 307 308 307 306 305 307 308 310 312 312 311 312 314 314 312 313 308 310 318 316 317 316 315 317 318 318 318 318 318 318 318 317 316 315 315 316 318 318
301 300 302 303 305 307 307 306 305 305 305 305 306 309 309 309 312 310 313 312 312 313 311 321 321 322 319 320 320 320 320 319 317 317 317 316 316 317 316 317 317 318 318 318
301 303 304 305 307 306 306 308 308 309 308 309 308 308 306 311 312 313 313 312 310 314 315 321 324 324 319 321 321 320 320 319 319 319 319 319 319 320 320 320 319 319 319 318
303 303 305 306 306 307 306 304 307 308 310 309 309 308 309 312 312 312 314 313 312 314 313 321 325 322 320 320 320 320 320 320 320 320 320 319 319 320 320 320 320 319 319 321
304 303 304 305 306 298 306 308 308 308 309 310 310 309 311 312 312 311 312 315 315 314 321 324 322 319 319 320 319 319 320 319 319 320 319 320 322 320 318 318 319 320 321 320
303 303 302 304 304 308 308 310 311 311 311 310 312 312 311 312 311 311 314 313 314 321 322 323 319 319 320 318 316 318 319 318 317 317 318 317 316 316 317 317 320 319 319 319
304 305 307 309 308 308 310 310 311 311 310 311 311 312 312 310 312 312 312 316 321 321 322 320 319 318 318 317 317 317 317 316 316 316 316 316 316 316 316 317 318 318 318 321
305 306 308 307 308 309 310 311 311 311 312 311 311 310 310 312 310 314 318 319 320 318 316 318 318 317 316 316 316 316 316 315 314 314 315 315 315 314 314 316 318 319 319 320
305 306 308 308 308 308 310 310 311 310 312 310 310 311 312 308 311 317 316 318 316 316 317 317 316 317 317 316 316 316 316 316 316 315 315 314 314 314 315 315 317 318 320 319

GFSNW_850_thetae_006.txt.gz
Theta_e
303 303 304 303 299 299 299 300 299 308 310 311 305 306 306 311 312 314 314 315 316 315 317 316 317 318 319 321 319 318 314 316 319 318 319 320 321 320 320 323 321 319 321 323
302 303 303 302 302 298 298 301 302 305 310 311 310 310 314 315 318 317 318 316 314 315 317 319 316 317 319 320 319 319 316 314 319 318 317 321 321 320 317 316 317 321 325 325
301 302 302 302 302 299 299 303 302 310 310 309 307 306 308 313 317 318 318 318 317 317 319 317 318 321 324 327 326 330 326 313 318 321 320 320 323 323 320 320 320 321 323 325
302 302 303 303 302 300 299 305 304 308 308 309 308 306 308 313 315 316 318 318 319 319 319 322 319 320 322 327 328 324 315 319 317 322 319 321 322 323 322 322 322 325 325 324
302 302 301 302 302 301 302 306 307 307 308 309 305 308 309 313 314 313 315 318 320 319 321 322 324 324 325 328 330 327 316 318 315 321 320 320 322 322 324 324 323 323 324 324
301 301 301 302 302 302 301 302 303 305 308 308 308 307 310 311 312 313 314 315 317 323 324 321 324 325 324 327 327 330 322 317 316 321 318 318 320 322 322 324 323 324 325 326
301 301 302 301 301 302 301 301 301 305 306 310 311 310 310 310 311 311 311 311 313 322 320 322 323 322 322 323 324 326 331 319 315 322 321 322 322 323 323 325 330 328 328 325
302 300 302 301 300 302 302 301 301 304 307 308 309 310 309 308 308 308 312 313 316 316 318 321 324 325 328 328 330 330 326 318 320 320 319 323 332 332 331 332 332 331 332 331
301 300 301 301 300 301 302 302 302 301 303 306 307 309 309 308 307 306 309 311 312 322 317 322 325 328 329 332 330 327 326 325 325 322 323 330 329 330 331 330 333 329 329 329
301 301 301 300 301 301 301 302 301 303 304 305 306 307 307 308 308 307 307 308 312 321 319 322 323 324 325 333 333 333 332 333 333 330 330 330 330 329 330 333 329 328 328 329
300 300 300 301 302 302 301 302 302 301 302 303 304 305 307 307 307 308 309 311 317 319 324 325 325 323 326 330 329 331 332 337 338 333 334 335 328 330 331 330 329 330 330 330
301 300 299 301 301 301 302 303 302 301 302 304 306 305 305 306 307 308 307 307 308 317 318 320 321 328 325 327 336 330 335 334 334 331 331 327 326 325 328 329 328 327 327 327
301 301 301 301 301 302 302 302 303 301 301 303 304 303 305 306 309 308 307 307 311 311 310 315 319 327 324 329 330 332 333 327 332 331 328 326 322 324 325 325 325 326 329 331
300 300 301 300 300 300 301 303 302 301 302 304 305 304 305 308 309 309 307 307 309 309 310 313 316 322 320 325 327 329 328 330 329 328 326 324 320 321 320 320 321 323 325 326
300 301 300 300 302 301 303 302 300 300 302 305 305 304 308 310 310 310 310 309 309 309 311 314 316 317 318 318 324 327 320 327 328 327 325 326 321 321 321 322 321 322 322 321
300 300 300 301 301 301 301 304 305 300 301 306 305 306 307 311 311 311 310 310 309 311 311 309 313 315 320 324 327 320 320 326 326 322 320 320 320 318 319 320 319 319 320 320
300 300 300 302 301 302 301 303 305 304 305 305 306 305 311 312 310 310 311 310 311 312 310 310 312 312 318 320 322 318 318 320 320 319 319 318 319 317 318 319 318 318 318 318
301 300 300 301 301 301 300 301 306 306 304 304 305 307 308 311 310 310 312 311 311 311 310 310 311 317 319 321 317 316 318 318 319 319 319 319 318 318 317 316 315 314 315 315
300 300 301 300 301 303 306 307 307 306 304 306 308 310 311 311 309 310 313 312 309 311 312 316 318 318 320 318 316 317 317 318 317 317 317 317 317 317 317 316 316 316 316 317
301 300 302 303 305 306 306 306 305 304 304 304 305 307 307 308 310 309 311 310 309 310 311 320 320 322 319 319 320 319 319 318 317 316 318 318 319 318 318 319 319 319 319 319
302 303 304 305 306 306 306 307 307 308 307 307 307 308 306 308 311 312 312 309 307 314 316 320 323 323 318 320 319 320 320 320 320 320 319 319 319 319 319 319 319 318 318 318
302 303 304 306 306 306 306 304 305 307 310 308 308 308 307 310 311 310 312 312 310 313 314 320 324 321 319 319 319 320 319 319 319 318 318 318 319 319 318 318 318 318 318 320
303 303 303 304 305 304 308 310 311 309 309 310 310 307 310 311 311 310 312 314 313 315 322 322 321 319 319 317 317 319 317 317 317 318 318 318 316 316 316 317 317 319 320 319
303 304 305 306 306 310 310 310 310 311 310 310 309 310 310 311 311 310 315 312 316 320 322 320 319 318 318 317 317 317 317 316 316 316 316 316 315 315 316 317 317 318 318 318
305 305 306 306 307 309 309 310 310 310 310 310 311 311 311 310 312 311 314 317 320 321 323 320 318 318 317 317 316 316 316 315 315 315 314 314 314 314 314 316 318 318 318 320
305 306 309 308 308 309 309 309 309 310 311 311 310 308 309 310 311 316 318 319 318 319 317 317 317 317 316 316 316 316 316 316 315 314 314 314 314 314 315 316 318 319 318 320
307 307 308 308 308 307 309 309 308 310 311 309 310 312 312 308 315 317 317 318 316 315 316 316 317 317 316 316 315 315 316 315 316 315 315 314 314 314 315 315 315 317 320 319

GFSNW_850_thetae_009.txt.gz
Theta_e
302 302 302 302 302 302 300 299 302 305 308 312 308 310 309 310 312 312 313 316 318 318 318 318 319 320 322 321 322 322 324 325 326 325 324 323 325 327 329 330 333 329 331 332
303 301 302 302 302 302 300 302 302 302 309 311 313 313 313 314 315 316 316 315 317 317 317 317 319 320 320 321 322 325 322 324 326 325 325 324 324 325 327 328 330 336 331 331
302 302 302 303 303 302 301 302 305 307 308 307 310 312 313 314 315 317 318 318 319 321 322 322 323 321 323 323 321 322 326 329 329 329 328 326 324 324 325 326 329 329 330 330
302 302 303 302 302 302 301 303 306 307 313 312 312 310 310 311 313 316 316 321 321 322 322 322 323 323 323 323 324 331 331 330 329 330 331 327 326 324 325 327 329 331 329 331
302 303 302 302 302 302 301 304 306 305 306 308 310 310 311 312 314 315 316 318 319 320 322 323 323 324 325 327 330 332 324 333 325 326 328 327 326 326 325 326 326 328 329 332
302 303 302 302 302 301 302 301 301 302 304 307 309 311 311 312 311 312 314 315 315 317 319 320 321 322 325 328 331 335 337 331 334 332 326 326 326 327 326 327 328 328 330 331
301 301 302 302 302 301 301 301 300 302 304 306 308 310 310 311 311 311 310 311 312 314 315 317 321 319 322 325 329 329 338 337 328 333 327 326 326 326 327 327 328 329 329 332
300 302 302 302 302 302 301 302 301 301 303 304 305 307 309 310 310 310 310 311 311 312 313 321 328 329 329 329 329 331 334 331 332 331 330 330 328 331 326 326 327 329 330 333
301 301 301 301 301 301 301 302 302 301 300 301 302 307 308 309 310 309 309 309 309 316 322 327 330 330 328 333 334 330 333 334 335 334 334 330 336 334 332 334 332 335 336 337
300 301 301 301 301 301 301 301 302 302 302 301 302 304 306 307 309 309 309 309 311 319 327 327 330 329 329 331 334 335 339 337 336 340 338 332 333 331 332 335 335 334 334 334
300 300 300 300 301 302 302 302 301 302 302 302 301 303 304 306 307 309 307 309 314 321 329 331 329 329 330 334 334 335 335 338 339 339 340 338 328 332 337 336 333 333 334 334
302 301 301 301 301 301 301 302 302 302 302 302 302 301 304 304 305 306 307 308 307 312 320 324 326 334 331 335 335 332 337 335 338 336 336 328 325 327 329 333 332 333 334 334
302 301 301 301 301 301 302 302 302 302 302 302 302 302 303 304 303 302 305 306 309 314 310 318 322 331 330 337 337 332 334 331 334 334 331 327 326 325 325 326 328 330 332 332
301 301 300 301 301 301 301 301 301 303 301 303 303 304 304 304 307 307 306 307 308 306 309 317 320 327 324 331 333 336 329 329 332 331 327 325 324 324 325 325 324 324 324 325
301 300 301 300 300 302 302 302 303 303 301 304 303 303 308 307 308 307 307 307 307 307 313 315 319 320 322 324 330 327 322 327 332 331 327 328 325 322 320 320 320 322 321 321
300 300 300 301 301 301 302 300 305 303 300 301 307 305 306 310 310 310 309 308 307 308 312 315 314 315 322 332 329 320 321 323 326 324 323 321 320 319 319 319 319 318 318 318
300 300 300 300 301 301 302 301 303 302 301 304 307 308 309 310 309 309 308 307 308 311 312 312 316 317 323 324 323 319 321 321 320 319 318 318 318 318 317 317 317 316 315 315
301 300 300 301 301 301 300 302 305 303 304 303 307 309 311 310 311 312 310 310 310 311 312 315 319 320 322 322 319 319 319 319 319 318 318 318 318 316 316 315 316 315 315 317
300 300 300 300 301 303 305 306 306 305 304 305 308 311 315 311 309 309 311 310 313 311 321 322 321 322 322 320 318 318 317 317 318 318 318 317 317 316 317 318 319 319 319 318
300 301 302 304 305 306 306 306 304 304 305 305 306 306 311 309 313 313 314 312 315 322 321 321 322 321 319 319 319 319 318 318 316 316 318 315 317 318 318 318 318 318 319 320
303 303 304 305 306 305 305 307 308 308 310 308 308 308 311 308 314 315 313 314 314 322 322 323 323 322 320 318 318 319 319 319 319 318 319 320 320 320 319 318 319 320 320 320
303 303 304 305 306 306 307 308 308 310 312 311 311 311 309 309 310 314 315 316 315 321 320 323 323 321 319 319 319 318 318 320 320 320 318 317 317 318 318 318 319 319 319 319
303 303 303 304 305 308 310 314 313 313 312 312 311 312 310 313 310 314 316 317 320 318 323 322 322 320 318 318 318 317 317 317 318 318 317 316 317 315 316 317 317 317 318 318
304 305 307 308 309 309 311 311 311 311 311 311 310 311 313 313 314 316 318 317 319 321 322 319 320 318 317 317 316 316 315 315 315 314 314 314 314 314 315 317 318 317 317 319
304 302 306 306 307 309 310 310 310 310 309 310 312 313 312 314 316 317 317 319 321 321 321 318 318 317 317 317 316 316 315 315 314 314 314 314 314 314 315 315 318 318 318 320
306 308 309 308 309 310 309 310 310 309 310 311 311 313 313 313 317 318 319 319 317 320 318 317 317 316 316 316 315 315 315 315 315 315 314 314 314 314 314 315 316 319 319 319
308 309 308 308 308 309 309 309 309 309 311 313 314 315 314 314 317 318 318 315 315 316 316 316 316 316 315 315 315 316 315 315 315 315 314 314 314 313 314 314 314 315 317 319